Grand Forks Air Force Base, ND

12:23 AM CDT on August 29, 2016 (GMT -0500)
Grand Forks Air Force Base

Weather History for KRDR - April, 2013

Change the Weather History Date:

Monday, April 1, 2013

  Actual Average Record
Temperature  
Mean Temperature 16 °F -  
Max Temperature 27 °F 41 °F 73 °F (2012)
Min Temperature 6 °F 23 °F 3 °F (2014)
Degree Days  
Heating Degree Days 48    
Moisture  
Dew Point 9 °F    
Average Humidity 71    
Maximum Humidity 81    
Minimum Humidity 56    
Precipitation  
Precipitation 0.00 in - - ()
Sea Level Pressure  
Sea Level Pressure 30.30 in    
Wind  
Wind Speed 8 mph (NW)    
Max Wind Speed 10 mph    
Max Gust Speed -    
Visibility 10 miles    
Events Snow    
Averages and records for this station are not official NWS values.
T = Trace of Precipitation, MM = Missing Value Source: NWS Daily Summary

Daily Weather History Graph

Daily Weather History Graph

Search for Another Location

Airport or City:

Trip Planner

Search our weather history database for the weather conditions in past years. The results will help you decide how hot, cold, wet, or windy it might be!

Date:

Astronomy

Apr. 01, 2013 Rise Set
Actual Time 7:07 AM CDT 8:00 PM CDT
Civil Twilight 6:35 AM CDT 8:31 PM CDT
Nautical Twilight 5:58 AM CDT 9:09 PM CDT
Astronomical Twilight 5:18 AM CDT 9:49 PM CDT
Moon 1:29 AM CDT (4/1) 10:35 AM CDT (4/1)
Length of Visible Light 13h 55m
Length of Day
12h 52m
Waning Gibbous, 67% of the Moon is Illuminated
Apr 1
Waning Gibbous
Apr 2
Last Quarter
Apr 10
New
Apr 18
First Quarter
Apr 25
Full

Hourly Weather History & Observations

Time (CDT) Temp. Windchill Dew Point Humidity Pressure Visibility Wind Dir Wind Speed Gust Speed Precip Events Conditions
12:55 AM 13.5 °F 2.2 °F 5.4 °F 70% 30.25 in 10.0 mi NNW 8.1 mph - N/A   Clear
1:02 AM 14.0 °F 2.9 °F 5.0 °F 67% 30.25 in 10.0 mi NW 8.1 mph - N/A Snow Light Snow
1:12 AM 14.0 °F 3.9 °F 5.0 °F 67% 30.25 in 10.0 mi NNW 6.9 mph - N/A   Clear
1:45 AM 12.2 °F 0.7 °F 5.0 °F 73% 30.25 in 10.0 mi NW 8.1 mph - N/A Snow Light Snow
1:55 AM 12.7 °F 1.4 °F 4.8 °F 71% 30.26 in 10.0 mi NW 8.1 mph - 0.00 in Snow Light Snow
2:13 AM 10.4 °F -2.4 °F 3.2 °F 73% 30.26 in 10.0 mi NW 9.2 mph - N/A   Clear
2:55 AM 12.6 °F 0.2 °F 4.6 °F 71% 30.26 in 10.0 mi NW 9.2 mph - 0.00 in   Clear
3:55 AM 11.5 °F -1.9 °F 5.0 °F 75% 30.27 in 10.0 mi NNW 10.4 mph - N/A   Clear
4:24 AM 10.4 °F -2.4 °F 5.0 °F 79% 30.27 in 10.0 mi NW 9.2 mph - N/A Snow Light Snow
4:47 AM 10.4 °F -0.4 °F 3.2 °F 73% 30.29 in 10.0 mi NW 6.9 mph - N/A   Clear
4:55 AM 9.3 °F -2.8 °F 3.2 °F 76% 30.29 in 10.0 mi NW 8.1 mph - 0.00 in   Clear
5:55 AM 6.3 °F -6.5 °F 0.7 °F 78% 30.30 in 10.0 mi WNW 8.1 mph - N/A   Clear
6:55 AM 6.3 °F -7.5 °F 0.5 °F 77% 30.32 in 10.0 mi WNW 9.2 mph - N/A   Clear
7:55 AM 7.9 °F -3.5 °F 1.2 °F 74% 30.32 in 10.0 mi NW 6.9 mph - N/A   Clear
8:55 AM 12.0 °F 2.7 °F 4.1 °F 71% 30.32 in 10.0 mi NW 5.8 mph - N/A   Clear
9:55 AM 15.1 °F 5.2 °F 6.3 °F 68% 30.33 in 10.0 mi WNW 6.9 mph - N/A   Clear
10:55 AM 19.8 °F 10.8 °F 10.0 °F 66% 30.33 in 10.0 mi WNW 6.9 mph - N/A   Clear
11:55 AM 22.1 °F 13.7 °F 12.0 °F 65% 30.34 in 10.0 mi WNW 6.9 mph - N/A   Clear
12:55 PM 23.0 °F 12.4 °F 12.2 °F 63% 30.34 in 10.0 mi NNW 10.4 mph - N/A   Clear
1:55 PM 24.4 °F 14.9 °F 12.4 °F 60% 30.33 in 10.0 mi NNW 9.2 mph - N/A   Clear
2:55 PM 26.1 °F 16.8 °F 14.9 °F 63% 30.33 in 10.0 mi NNW 9.2 mph - N/A   Clear
3:55 PM 26.8 °F 18.5 °F 14.2 °F 59% 30.32 in 10.0 mi NNW 8.1 mph - N/A   Clear
4:55 PM 27.3 °F 17.7 °F 13.3 °F 56% 30.31 in 10.0 mi NW 10.4 mph - N/A   Clear
5:55 PM 27.0 °F 18.0 °F 14.4 °F 59% 30.31 in 10.0 mi NNW 9.2 mph - N/A   Clear
6:55 PM 25.9 °F 16.6 °F 15.1 °F 64% 30.30 in 10.0 mi NNW 9.2 mph - N/A   Clear
7:55 PM 23.4 °F 16.2 °F 13.6 °F 66% 30.29 in 10.0 mi NW 5.8 mph - N/A   Clear
8:55 PM 20.3 °F 11.5 °F 13.5 °F 75% 30.29 in 10.0 mi WNW 6.9 mph - N/A   Clear
9:48 PM 17.6 °F 9.3 °F 12.2 °F 79% 30.30 in 10.0 mi WNW 5.8 mph - N/A Snow Light Snow
9:55 PM 17.1 °F 8.7 °F 12.0 °F 81% 30.30 in 10.0 mi WNW 5.8 mph - 0.00 in Snow Light Snow
9:56 PM 17.6 °F 9.3 °F 12.2 °F 79% 30.30 in 10.0 mi WNW 5.8 mph - N/A   Clear
10:47 PM 17.6 °F 8.2 °F 12.2 °F 79% 30.30 in 10.0 mi WNW 6.9 mph - N/A Snow Light Snow
10:55 PM 17.1 °F 8.7 °F 11.7 °F 79% 30.30 in 10.0 mi WNW 5.8 mph - 0.00 in Snow Light Snow
10:59 PM 17.6 °F 8.2 °F 12.2 °F 79% 30.30 in 10.0 mi WNW 6.9 mph - N/A   Clear
11:55 PM 15.3 °F 4.4 °F 9.7 °F 79% 30.28 in 10.0 mi WNW 8.1 mph - 0.00 in   Clear